Redwood Falls, MN

10:49 PM CST on February 08, 2016 (GMT -0600)
Redwood Falls Municipal

Weather History for KRWF - January, 2014

Change the Weather History Date:

Saturday, January 25, 2014

  Actual Average Record
Temperature  
Mean Temperature 14 °F -  
Max Temperature 26 °F 20 °F 64 °F (1944)
Min Temperature 3 °F 3 °F -18 °F (1936)
Degree Days  
Heating Degree Days 50    
Moisture  
Dew Point 3 °F    
Average Humidity 69    
Maximum Humidity 92    
Minimum Humidity 50    
Precipitation  
Precipitation 0.00 in - - ()
Sea Level Pressure  
Sea Level Pressure 29.77 in    
Wind  
Wind Speed 17 mph (North)    
Max Wind Speed 23 mph    
Max Gust Speed 36 mph    
Visibility 7 miles    
Events Fog , Snow    
Averages and records for this station are not official NWS values.
T = Trace of Precipitation, MM = Missing Value Source: NWS Daily Summary

Daily Weather History Graph

Daily Weather History Graph

Search for Another Location

Airport or City:

Trip Planner

Search our weather history database for the weather conditions in past years. The results will help you decide how hot, cold, wet, or windy it might be!

Date:

Astronomy

Jan. 25, 2014 Rise Set
Actual Time 7:46 AM CST 5:19 PM CST
Civil Twilight 7:14 AM CST 5:51 PM CST
Nautical Twilight 6:39 AM CST 6:26 PM CST
Astronomical Twilight 6:04 AM CST 7:01 PM CST
Moon 2:18 AM CST (1/25) 12:21 PM CST (1/25)
Length of Visible Light 10h 36m
Length of Day
9h 33m
Waning Crescent, 34% of the Moon is Illuminated
Jan 25
Waning Crescent
Jan 30
New
Feb 6
First Quarter
Feb 14
Full
Feb 22
Last Quarter

Hourly Weather History & Observations

Time (CST) Temp. Windchill Dew Point Humidity Pressure Visibility Wind Dir Wind Speed Gust Speed Precip Events Conditions
12:04 AM 26.6 °F 13.4 °F 19.4 °F 74% 29.67 in 5.0 mi NW 18.4 mph 28.8 mph 0.00 in Snow Light Snow
12:53 AM 24.1 °F 8.7 °F 16.0 °F 71% 29.75 in 9.0 mi NW 23.0 mph 32.2 mph 0.00 in   Overcast
1:04 AM 23.0 °F 7.6 °F 12.2 °F 63% 29.72 in 10.0 mi NW 21.9 mph 35.7 mph N/A   Overcast
1:53 AM 18.0 °F 1.7 °F 6.1 °F 60% 29.81 in 10.0 mi NNW 19.6 mph 31.1 mph N/A   Mostly Cloudy
2:53 AM 12.9 °F -3.9 °F 1.0 °F 59% 29.85 in 10.0 mi NW 17.3 mph 29.9 mph N/A   Clear
3:53 AM 10.0 °F -8.1 °F -2.9 °F 56% 29.88 in 10.0 mi NW 18.4 mph 29.9 mph N/A   Clear
4:53 AM 8.1 °F -10.2 °F -7.1 °F 50% 29.92 in 10.0 mi NNW 17.3 mph 29.9 mph N/A   Clear
5:53 AM 6.1 °F -13.8 °F -7.1 °F 55% 29.95 in 10.0 mi NW 19.6 mph 28.8 mph N/A   Clear
6:53 AM 5.0 °F -15.7 °F -7.1 °F 58% 29.98 in 10.0 mi NW 20.7 mph 27.6 mph N/A   Clear
7:53 AM 3.0 °F -17.8 °F -7.1 °F 63% 30.02 in 10.0 mi NW 19.6 mph 31.1 mph N/A   Clear
8:53 AM 3.0 °F -18.8 °F -8.0 °F 60% 30.04 in 10.0 mi NW 21.9 mph 34.5 mph N/A   Clear
9:53 AM 3.9 °F -15.0 °F -6.0 °F 64% 30.05 in 10.0 mi NW 16.1 mph 27.6 mph N/A   Clear
10:53 AM 6.1 °F -15.2 °F -7.1 °F 55% 30.06 in 10.0 mi NW 23.0 mph 32.2 mph N/A   Clear
11:53 AM 7.0 °F -12.6 °F -7.1 °F 53% 30.05 in 10.0 mi NW 19.6 mph 27.6 mph N/A   Clear
12:53 PM 8.1 °F -9.0 °F -6.0 °F 53% 30.03 in 10.0 mi NW 15.0 mph 24.2 mph N/A   Clear
1:53 PM 9.0 °F -8.5 °F -4.0 °F 56% 30.00 in 10.0 mi WNW 16.1 mph - N/A   Clear
2:53 PM 10.0 °F -5.9 °F -5.1 °F 51% 29.96 in 10.0 mi WNW 13.8 mph - N/A   Clear
3:53 PM 10.0 °F -4.5 °F -4.0 °F 53% 29.95 in 10.0 mi WNW 11.5 mph - N/A   Scattered Clouds
4:53 PM 10.0 °F 1.8 °F -2.9 °F 56% 29.91 in 10.0 mi WNW 4.6 mph - N/A   Mostly Cloudy
5:53 PM 10.0 °F 3.6 °F -2.0 °F 58% 29.85 in 10.0 mi SSE 3.5 mph - N/A   Mostly Cloudy
6:53 PM 10.0 °F -3.7 °F 1.0 °F 67% 29.79 in 10.0 mi SE 10.4 mph - N/A   Overcast
7:30 PM 10.4 °F -4.1 °F 3.2 °F 73% 29.68 in 1.8 mi SE 11.5 mph - 0.00 in Snow Light Snow
7:53 PM 10.9 °F -3.4 °F 6.1 °F 81% 29.73 in 1.0 mi SE 11.5 mph - 0.00 in Snow Light Snow
8:02 PM 10.4 °F -4.8 °F 6.8 °F 85% 29.65 in 1.0 mi SE 12.7 mph - 0.00 in Snow Light Snow
8:10 PM 10.4 °F -4.8 °F 6.8 °F 85% 29.64 in 0.8 mi SE 12.7 mph - 0.00 in Snow Light Snow
8:22 PM 10.4 °F -5.4 °F 8.6 °F 92% 29.61 in 0.5 mi SE 13.8 mph - 0.00 in Fog , Snow Snow
8:53 PM 12.0 °F -4.0 °F 8.1 °F 84% 29.62 in 0.8 mi SE 15.0 mph - 0.00 in Snow Light Snow
9:08 PM 12.2 °F -3.1 °F 8.6 °F 85% 29.53 in 0.8 mi SE 13.8 mph - 0.00 in Snow Light Snow
9:19 PM 12.2 °F -3.7 °F 8.6 °F 85% 29.52 in 0.8 mi SE 15.0 mph - 0.00 in Snow Light Snow
9:53 PM 12.9 °F -2.2 °F 10.0 °F 88% 29.56 in 0.5 mi ESE 13.8 mph - 0.00 in Fog , Snow Snow
10:46 PM 12.2 °F -1.8 °F 10.4 °F 92% 29.46 in 0.8 mi East 11.5 mph - 0.00 in Snow Light Snow
10:53 PM 12.9 °F -2.8 °F 10.0 °F 88% 29.51 in 1.0 mi ESE 15.0 mph - 0.00 in Snow Light Snow
11:18 PM 14.0 °F -0.8 °F 10.4 °F 86% 29.43 in 2.0 mi ESE 13.8 mph 20.7 mph 0.00 in Snow Light Snow
11:29 PM 14.0 °F -2.5 °F 10.4 °F 86% 29.41 in 5.0 mi SE 17.3 mph - 0.00 in Snow Light Snow
11:53 PM 14.0 °F -0.2 °F 10.0 °F 84% 29.45 in 10.0 mi ESE 12.7 mph 20.7 mph 0.00 in   Overcast